Location: Les Martinières
(47.2667°N, 1.4410°E)
Time: 22:48:22
(UTC+00:00)

Cosmos 2333 Rocket - Pass Details

Date: 15 May 2026
Orbit: 841 x 862 km, 70.8° (Epoch: 6 June)

Event Time Altitude Azimuth Distance (km) Brightness Sun altitude
Rises 19:50:50 0° 336° (NNW) 3,421 6.5 -4.7°
Reaches altitude 10° 19:53:31 10° 346° (NNW) 2,485 5.5 -5.1°
Maximum altitude 19:58:41 34° 51° (NE) 1,378 3.2 -5.8°
Drops below altitude 10° 20:03:51 10° 115° (ESE) 2,486 4.0 -6.5°
Enters shadow 20:04:29 - 118° (ESE) 2,702 4.2 -6.6°
